Вернуться в каталог

MOLNIYA 3-40

АктивенСвязьHEO
NORAD 21196·PAYLOAD·🇷🇺 Russia

Запущен Mar 22, 1991 с Plesetsk Cosmodrome

Loading…

Ближайшие Пролёты (ближайшие 24 часа)

TLE

СвежийSource: Space-Track

Эпоха: Sep 13, 2026, 00:40 UTC

1 21196U 91022A   26256.02846174  .00001150  00000-0  00000-0 0  9993
2 21196  64.7118 181.2980 6454028 252.3903  31.3938  2.03001583261121

Отслеживайте MOLNIYA 3-40 в реальном времени с AllMySat

Download on the App Store